Theta_e
347 349 347 345 345 344 342 342 342 339 340 338 340 341 342 342 342 342 343 342 341 342 339 340 342 342 340 339 341 341 341 340 339 336 337 337 338 335 334 335 334 334 332 331 333 332 330 331 332 329 330 330 329 328 328 328 328 329 329 329 328 328 328 328 328 328 328 328 328 328 328 328 328 328 328 328 328 328 328 328 328 328 329 330 330
345 346 346 345 345 345 343 343 341 341 339 340 339 340 341 341 343 342 340 341 341 341 340 340 339 341 340 340 340 340 340 338 337 336 337 337 338 336 334 334 333 333 335 332 332 330 331 331 331 330 330 329 328 328 329 329 329 329 328 328 329 329 329 329 329 328 329 328 328 328 328 327 327 327 327 327 327 328 329 329 329 328 328 329 330
347 346 346 344 345 344 343 343 341 341 340 339 341 341 343 342 343 341 342 341 340 340 339 340 339 340 341 338 340 340 338 339 337 337 336 336 337 337 334 332 332 334 335 336 332 331 331 331 330 330 329 329 329 330 330 330 329 329 329 329 328 328 328 328 328 329 329 328 328 328 328 327 328 327 327 327 327 327 328 328 329 329 328 328 329
350 349 347 344 344 344 343 344 343 341 342 340 339 341 342 341 343 343 343 342 342 342 342 340 340 338 339 340 339 339 337 337 337 338 337 337 336 337 337 335 334 334 334 335 333 330 330 331 330 331 331 331 331 330 330 330 329 329 329 328 328 329 329 330 330 329 329 329 329 329 329 328 328 328 327 327 327 326 327 328 328 328 328 328 329
350 350 347 345 344 343 343 343 342 342 343 343 340 342 341 341 342 342 342 342 341 341 340 341 339 339 340 340 338 337 339 338 338 338 337 337 337 337 338 337 336 334 334 332 331 330 330 330 330 330 331 331 331 330 329 330 329 329 328 328 328 329 329 329 330 330 330 329 329 329 329 329 328 328 328 327 327 326 326 327 327 328 329 329 328
349 349 347 346 346 343 342 342 342 344 343 343 339 339 338 340 339 340 339 340 339 340 338 339 339 339 340 339 339 340 339 337 338 337 337 338 337 338 338 337 335 335 335 334 333 331 330 329 330 331 332 331 330 330 330 330 329 329 329 330 330 330 330 330 330 330 330 331 330 330 330 329 329 328 327 327 327 326 326 327 328 328 328 329 329
348 348 347 346 346 344 342 342 343 343 341 342 340 339 339 338 337 337 339 338 338 338 339 340 338 337 339 339 339 339 339 339 338 338 338 339 338 338 339 336 335 333 334 334 335 335 334 333 333 333 332 332 331 330 331 330 330 330 330 331 331 331 331 331 331 332 331 330 331 330 330 330 330 329 328 328 327 327 327 326 327 328 328 329 329
344 341 344 346 345 345 344 345 345 342 340 340 341 339 339 338 339 338 337 337 338 338 338 339 338 337 339 338 338 338 340 339 340 340 339 339 339 341 340 339 337 334 333 334 335 336 336 334 333 332 332 332 332 332 332 332 331 331 331 331 331 331 331 332 332 332 332 332 331 330 330 331 330 330 329 327 326 326 327 327 328 328 329 329 329
342 345 346 346 345 345 345 346 345 343 341 340 339 339 339 338 339 339 339 336 336 336 337 339 337 337 337 338 337 338 340 341 340 339 340 340 341 339 338 338 338 332 338 337 338 336 336 334 335 336 335 333 333 334 334 334 334 333 333 333 333 332 332 333 333 333 333 333 333 332 331 331 330 330 330 329 328 327 327 328 328 329 329 330 331
341 342 345 345 346 346 345 345 344 343 341 341 339 339 340 340 339 339 340 337 335 335 336 337 337 336 336 337 337 337 340 341 341 339 340 339 339 339 337 339 336 336 337 339 340 339 338 337 337 337 336 335 335 334 334 335 335 333 333 334 334 333 333 333 335 334 334 332 333 333 332 331 331 331 331 328 327 327 328 328 329 330 330 330 330
342 338 339 345 345 344 344 343 342 341 341 340 339 338 339 341 341 340 341 340 337 337 336 335 335 335 335 336 339 340 341 341 341 339 340 340 341 340 340 337 337 336 336 340 340 340 340 340 338 338 338 334 335 334 332 330 333 333 334 334 333 333 332 334 335 334 334 334 334 333 332 331 331 331 330 328 328 328 328 329 330 331 330 330 330
344 339 336 341 346 344 343 342 342 342 340 338 336 336 338 340 340 338 336 337 338 337 337 335 335 335 334 337 339 340 340 340 341 341 341 340 339 338 337 337 336 336 338 340 340 341 340 340 340 338 338 336 331 330 333 333 332 331 332 333 334 333 333 334 335 335 334 334 333 333 333 332 331 331 330 329 328 328 328 329 330 330 330 329 329
335 335 336 339 338 341 341 341 341 342 341 339 338 338 339 343 340 338 336 335 335 337 336 337 333 333 334 335 337 339 340 340 339 340 339 337 336 335 336 338 336 335 340 341 339 339 338 338 339 340 338 339 336 330 334 333 332 332 333 333 333 334 334 334 336 336 334 333 333 333 333 333 332 331 331 330 329 329 330 330 330 329 328 329 329
341 336 338 339 338 337 338 340 342 342 343 343 342 340 340 339 341 336 338 335 334 336 336 335 331 329 327 328 331 335 339 339 337 338 339 340 337 335 336 338 337 336 339 338 337 337 337 338 339 338 338 339 339 337 338 336 335 334 334 331 331 333 333 335 336 335 333 332 332 332 333 333 332 331 331 330 330 330 330 330 329 328 328 328 328
343 339 337 337 338 336 336 339 336 340 343 342 344 342 342 341 339 335 334 336 335 337 337 337 331 332 331 328 324 325 331 334 337 336 336 338 336 337 338 338 338 337 338 336 335 337 337 338 338 339 339 339 339 338 336 334 337 334 334 332 332 334 335 334 335 334 332 331 332 332 333 333 332 331 330 330 331 331 330 328 328 328 328 327 327
340 341 339 336 337 336 336 337 338 343 341 340 341 341 343 341 339 337 335 332 332 333 338 339 336 331 323 324 326 325 321 322 327 332 337 338 338 338 337 334 336 337 337 333 336 334 335 339 339 340 341 341 339 337 338 338 335 334 333 331 332 334 333 334 335 333 331 330 331 332 332 333 333 332 331 331 331 330 328 327 327 327 327 326 326
341 341 342 339 338 336 335 337 336 341 341 341 340 339 341 341 340 339 337 335 333 335 336 339 337 338 334 326 323 322 323 327 329 329 334 333 337 336 335 335 336 336 332 332 334 334 338 339 340 340 340 340 340 339 337 337 338 339 334 333 334 333 333 332 331 330 330 330 331 331 332 333 333 332 332 330 329 328 327 326 326 326 326 325 324
341 342 338 336 337 337 336 335 334 340 338 342 340 341 341 340 340 340 337 338 336 332 332 337 340 338 336 338 333 324 323 328 327 321 332 333 333 333 335 335 335 335 331 333 332 332 337 338 340 340 340 339 339 339 338 338 337 339 339 336 332 334 333 332 330 330 331 331 330 330 332 333 332 332 331 330 329 328 327 326 325 325 325 324 324
340 341 339 336 337 339 335 335 336 336 340 344 341 339 337 339 340 338 338 338 334 331 333 334 335 333 336 338 336 334 332 329 324 325 323 328 333 333 332 333 335 335 332 333 333 333 336 337 338 337 338 336 338 339 339 337 336 335 333 329 327 324 325 327 330 330 332 331 331 331 333 334 332 331 331 330 328 327 326 325 325 324 324 324 324
338 338 339 338 337 336 336 336 335 333 339 341 342 341 339 340 340 339 340 336 331 333 333 333 330 329 335 336 336 335 335 335 334 329 324 321 325 332 334 335 336 336 335 335 334 334 337 337 336 336 336 334 338 340 340 338 336 336 333 323 324 324 324 324 324 324 329 331 331 333 333 332 332 331 330 328 327 326 325 325 324 324 323 324 324
339 338 338 337 337 335 335 335 334 335 335 340 341 339 337 338 339 339 340 336 337 336 333 330 332 333 332 333 334 333 332 334 335 334 325 322 323 326 327 333 334 335 337 338 336 337 337 336 336 335 335 336 337 337 337 336 335 335 330 321 323 323 322 320 316 316 319 330 329 330 332 332 332 331 329 327 326 325 325 323 323 323 323 322 323
338 336 337 336 335 335 335 335 334 334 337 336 336 335 335 337 338 337 340 339 339 335 332 334 334 337 334 334 332 331 331 331 332 331 331 329 324 323 327 326 325 330 336 336 336 336 335 337 336 334 334 335 336 335 335 335 335 332 327 320 323 322 323 321 315 317 319 322 329 327 330 330 330 329 327 327 326 325 323 323 323 323 323 323 322
337 337 337 335 334 334 336 336 335 336 335 335 335 337 336 337 339 339 337 338 334 332 332 334 336 332 333 333 332 332 331 329 330 331 330 328 325 325 327 326 325 326 331 335 334 333 333 336 336 333 335 336 335 335 335 334 331 328 322 320 322 323 322 317 314 316 319 324 326 328 327 326 326 326 325 325 325 323 322 323 323 323 322 322 322
338 337 334 334 334 335 335 335 335 337 335 336 335 335 337 337 338 338 337 337 335 333 334 338 335 333 334 334 334 334 332 330 330 330 330 329 328 326 325 326 325 327 330 333 333 331 332 333 334 335 334 334 334 335 333 332 331 322 327 320 321 320 321 321 316 316 315 320 323 327 327 327 326 325 325 324 323 323 324 323 323 322 321 320 321
335 334 334 335 335 334 334 335 334 334 334 334 335 336 337 336 336 337 339 335 335 336 337 333 335 329 333 335 336 334 333 333 332 331 332 332 329 325 326 327 324 325 328 328 328 332 333 332 333 334 333 334 332 332 332 331 330 325 325 322 319 318 319 323 322 317 315 315 319 325 327 326 326 326 324 323 323 324 324 324 319 317 319 320 321
336 336 336 336 335 335 335 335 334 334 335 335 336 337 336 335 336 337 334 335 335 336 337 338 337 335 336 336 336 334 334 333 332 332 332 331 329 327 326 326 326 324 326 326 329 327 329 332 334 334 334 334 333 331 332 329 330 322 321 326 322 316 316 321 324 320 316 314 315 319 322 325 325 325 325 324 324 323 318 313 313 314 311 313 316
336 337 337 337 337 336 336 336 335 335 336 334 334 335 336 336 337 338 335 334 332 332 337 337 336 335 334 334 336 335 334 334 333 333 333 333 331 329 327 323 324 325 324 326 327 327 327 331 333 333 334 335 335 332 330 331 327 322 320 330 329 315 316 319 323 322 317 313 312 314 317 319 320 320 319 318 314 312 315 316 315 311 311 313 316
338 338 337 337 337 336 336 336 336 336 335 336 336 335 334 335 337 333 332 335 333 331 336 336 337 336 334 336 337 334 335 335 335 335 333 334 333 331 329 326 322 320 323 323 325 325 329 327 331 333 332 333 333 332 328 326 329 320 321 330 330 324 312 315 320 322 318 315 312 311 311 312 312 313 313 313 315 316 317 318 315 312 310 315 319
337 337 336 337 337 336 334 335 336 336 336 337 336 336 336 334 334 334 334 334 334 334 336 335 337 336 332 335 335 335 337 339 337 336 334 334 334 332 330 329 328 322 320 320 323 323 326 328 326 329 332 332 332 332 330 329 325 323 324 328 329 329 317 314 316 315 315 314 313 312 310 311 312 313 316 317 319 319 317 314 314 312 312 317 318
336 337 336 336 337 336 334 334 336 336 336 336 336 336 336 335 333 332 336 336 334 333 333 337 334 336 333 333 331 334 338 338 337 339 337 335 334 333 332 332 331 326 324 320 322 326 326 330 330 328 331 331 331 331 330 330 321 323 322 324 325 329 314 314 313 310 310 312 309 309 308 310 313 315 318 317 318 317 313 312 312 312 313 317 317
336 337 337 336 335 335 335 334 335 334 335 336 336 336 335 333 334 333 333 335 332 333 337 335 336 336 336 335 335 336 334 333 333 338 337 334 334 334 333 334 333 332 327 324 320 327 330 326 328 330 330 331 331 332 330 329 323 324 325 325 320 319 315 317 312 311 311 311 307 307 309 310 311 313 315 318 318 316 315 315 314 313 316 317 315
336 337 337 337 335 335 335 334 333 333 333 334 334 335 334 334 334 333 335 334 334 330 333 335 335 336 336 336 335 333 333 332 332 335 335 333 334 334 334 334 333 334 331 326 323 322 327 328 328 329 331 332 332 330 329 329 324 318 326 323 326 318 322 323 311 310 311 310 307 310 316 315 312 314 316 317 316 316 316 315 315 316 316 313 312
334 335 335 335 335 334 335 334 334 333 332 332 333 334 333 333 333 334 335 336 334 334 330 330 335 335 336 335 335 335 337 333 333 336 335 333 335 336 335 334 333 334 332 329 325 324 328 332 332 329 331 332 329 330 328 328 327 328 323 324 325 321 318 322 325 309 309 308 307 307 308 308 307 314 313 311 314 313 313 310 311 311 311 309 308
335 334 334 335 335 335 334 334 334 334 332 332 334 334 332 332 332 333 333 334 332 333 328 329 328 332 336 335 334 336 334 332 332 331 335 335 334 333 333 333 331 332 334 330 327 325 323 326 328 331 329 331 327 330 328 327 326 328 322 324 325 317 317 321 323 324 307 308 306 305 306 307 306 307 307 305 307 307 308 307 306 305 308 306 304
334 335 335 335 335 335 335 335 334 334 334 333 334 334 332 332 331 332 334 336 334 330 330 333 330 331 334 333 335 336 334 332 333 332 334 333 334 332 333 333 332 333 332 331 329 323 323 322 327 327 328 329 329 327 327 327 327 325 321 322 321 317 317 320 320 322 307 307 305 305 305 304 305 304 304 305 304 304 304 305 305 304 303 303 302
332 335 336 335 335 335 335 334 334 333 333 334 334 334 333 332 331 333 334 334 334 334 331 331 332 332 333 334 335 334 332 332 332 333 332 334 334 333 332 333 333 332 334 334 332 327 326 323 325 324 327 328 327 328 324 325 326 324 322 321 321 319 316 317 318 319 312 306 305 305 304 304 303 303 302 302 303 303 302 302 303 303 302 302 302
333 334 335 335 335 334 334 333 333 331 333 333 333 333 333 334 334 334 335 334 335 332 330 331 332 328 331 330 332 332 333 332 332 332 333 335 334 333 332 331 331 333 333 333 332 330 328 325 325 325 327 328 327 325 323 322 323 323 322 322 321 318 318 317 316 315 310 304 305 304 303 303 302 301 301 302 301 302 301 301 302 302 303 302 302
331 333 334 334 334 333 333 332 333 331 332 332 333 333 332 332 333 334 335 333 334 332 332 332 332 333 333 331 333 333 333 333 333 333 335 335 334 333 333 331 330 331 333 333 333 331 328 327 325 323 325 323 323 322 322 322 321 319 320 321 321 320 317 316 316 316 317 314 315 313 306 304 302 301 302 301 300 300 300 301 301 302 302 302 302
329 330 331 331 333 333 334 333 334 333 334 335 334 333 332 332 333 333 333 335 334 332 331 330 332 332 333 333 332 333 333 334 334 335 335 336 334 334 334 333 330 329 330 332 330 330 329 328 326 324 321 323 323 320 320 322 322 321 320 319 319 318 319 318 316 317 318 317 311 306 308 308 307 308 303 300 300 300 301 300 301 301 302 301 300
328 329 329 329 331 333 333 332 332 333 335 335 334 332 331 332 332 333 332 330 332 332 332 331 332 334 335 333 332 331 333 335 336 335 336 335 335 334 333 333 331 328 330 330 330 328 327 327 325 324 322 320 321 322 320 321 320 319 320 320 317 317 318 319 318 317 318 318 318 315 309 307 306 306 302 301 301 301 301 301 301 302 301 301 300
327 329 329 329 330 331 331 332 331 330 330 333 334 333 332 332 332 331 331 335 334 332 330 332 337 337 337 338 334 335 333 328 319 318 318 320 333 330 332 332 331 332 329 328 327 326 325 326 325 326 323 321 321 322 319 319 319 319 322 322 320 319 318 318 317 317 317 317 317 316 315 315 312 312 312 312 311 306 305 302 306 304 301 300 299
321 325 327 327 328 329 329 329 331 329 330 330 328 316 319 331 332 333 335 334 332 331 331 333 335 336 336 336 335 329 322 322 318 311 310 312 315 326 330 330 334 330 329 328 326 326 325 324 326 325 322 321 321 323 322 322 324 324 321 321 318 317 317 316 317 317 317 317 316 315 316 318 317 316 316 315 316 317 316 314 312 310 306 300 300
316 319 323 325 326 327 328 327 329 330 330 329 315 307 308 312 329 334 334 332 331 332 333 333 334 335 336 336 337 331 327 322 325 307 308 306 308 311 311 312 313 331 328 331 327 332 328 324 327 325 323 322 321 325 324 324 324 323 321 322 320 317 314 312 310 316 321 318 316 316 317 321 321 317 318 319 321 323 322 319 303 304 302 301 300
313 315 316 319 324 327 328 328 329 328 328 318 307 304 305 305 313 335 333 330 332 333 333 333 333 335 335 334 334 335 335 335 335 327 315 304 306 304 301 300 300 296 300 321 328 327 329 327 321 322 319 320 323 324 324 323 321 321 322 322 319 316 315 312 312 314 321 322 318 317 317 323 323 320 320 319 321 324 314 305 300 300 300 299 300
310 310 310 311 313 320 327 326 327 328 329 307 301 302 302 303 304 316 331 332 333 332 332 329 330 333 333 333 333 335 333 326 331 334 331 321 300 296 296 299 300 302 299 298 300 322 326 328 323 321 321 322 323 326 326 323 322 320 320 318 319 317 316 314 314 317 320 324 320 318 316 320 323 321 320 324 327 326 317 302 299 300 299 299 298
307 307 307 307 308 311 316 322 326 328 327 298 297 298 299 299 301 306 329 332 333 329 330 330 332 332 333 333 332 332 332 331 333 335 333 330 326 324 325 329 327 313 302 304 304 299 311 328 328 322 324 325 324 327 326 324 321 318 317 314 316 316 316 315 319 321 324 322 319 318 316 321 324 323 322 325 326 326 318 304 298 299 299 298 299
304 304 304 304 305 306 308 311 316 320 312 292 294 295 296 296 297 300 328 328 331 330 330 330 331 332 333 334 333 331 331 331 333 330 332 331 330 330 330 330 328 326 324 322 325 330 330 328 328 328 326 327 327 327 325 324 323 322 319 318 320 320 319 322 322 323 323 324 325 323 318 322 325 322 323 324 325 323 314 301 299 299 299 299 298
304 303 304 303 302 302 304 306 308 310 311 292 292 294 294 295 295 313 327 328 328 328 328 329 329 328 329 330 327 327 329 331 315 308 318 330 330 328 326 324 320 317 311 299 294 297 315 324 324 323 317 309 304 321 325 326 322 320 319 324 323 321 318 315 314 320 319 323 324 320 319 320 324 320 320 324 323 322 320 313 299 301 300 299 299
301 301 301 301 301 300 300 301 302 304 307 297 291 294 293 294 298 318 325 323 323 321 321 324 325 326 327 328 330 328 329 328 307 302 305 313 327 324 322 320 318 316 312 307 296 294 294 293 293 293 293 294 295 295 295 295 312 318 321 316 315 317 316 313 317 320 319 318 318 318 319 317 321 320 318 319 320 318 317 319 317 299 299 299 298
299 299 300 300 300 300 299 299 299 301 301 298 292 292 296 295 302 318 320 320 318 315 314 317 319 316 310 303 313 329 327 321 296 298 300 315 325 322 321 318 316 314 311 311 309 303 295 295 294 294 295 295 296 296 296 298 300 310 322 317 321 320 319 317 314 317 317 315 314 316 314 314 319 318 314 314 314 314 316 317 316 313 298 298 297
299 300 300 299 298 299 299 299 299 299 299 299 294 292 292 294 306 315 315 314 313 312 310 309 311 310 308 304 298 307 316 305 294 297 297 310 324 322 320 318 315 313 312 312 310 309 310 311 312 313 310 306 311 311 308 298 301 307 318 316 316 316 315 312 311 311 312 310 311 314 313 313 313 313 310 308 307 313 316 315 315 315 314 313 311
Wind_Speed
7 6 6 7 6 7 7 6 7 7 8 8 9 9 7 7 7 7 6 6 6 5 5 5 4 4 4 5 4 4 4 4 3 3 4 4 5 6 3 5 4 5 6 5 6 6 5 6 7 5 7 7 6 6 7 7 7 8 9 9 9 10 10 11 12 12 11 11 11 11 11 11 11 12 12 12 13 12 13 13 13 13 13 15 15
6 6 6 7 6 6 7 6 6 6 7 8 8 8 7 7 7 7 7 6 6 5 4 4 4 4 4 5 4 4 4 4 3 4 4 3 5 6 6 7 6 4 4 5 5 5 6 7 7 7 7 6 6 6 6 6 7 7 7 8 9 10 9 10 10 10 10 10 11 10 10 10 10 11 11 11 12 12 12 13 13 12 12 14 15
5 5 6 6 6 6 6 7 7 7 7 8 8 8 7 7 7 7 6 6 5 6 5 4 4 4 3 5 3 3 3 3 2 2 4 4 5 5 7 6 4 3 4 3 5 6 6 6 6 6 6 6 5 6 6 6 5 7 7 7 7 7 9 9 9 9 10 10 11 10 10 9 10 10 11 11 11 12 11 12 12 12 12 12 14
4 5 5 5 6 6 7 7 7 7 7 7 8 8 7 7 7 6 5 5 5 5 4 4 4 3 3 4 3 3 3 3 4 2 2 4 6 5 5 7 5 4 5 6 4 3 5 6 6 7 7 6 6 5 5 5 5 5 5 6 6 7 7 8 8 9 9 9 10 10 10 10 10 10 10 10 11 10 11 11 11 12 12 12 13
5 6 5 5 5 6 7 7 7 7 7 8 9 8 7 7 7 6 6 6 5 5 5 4 3 3 4 4 3 3 3 3 3 4 3 3 3 4 5 6 7 7 5 5 5 3 4 4 6 6 6 6 5 5 5 5 5 5 6 5 6 7 7 8 8 8 8 9 9 10 10 10 9 9 9 9 10 10 11 11 10 11 13 12 11
6 6 6 5 5 6 7 7 7 8 8 8 8 8 7 7 7 7 6 6 6 6 5 5 4 4 4 3 3 3 3 3 3 3 3 3 3 2 3 5 6 6 7 7 5 5 4 5 5 5 5 4 5 5 5 5 5 6 5 5 5 6 7 7 7 8 8 8 9 9 10 9 9 9 9 9 9 9 9 10 9 9 10 11 11
7 5 6 6 6 6 7 7 7 8 8 8 8 8 7 8 7 7 6 6 6 6 5 4 4 4 3 3 2 3 4 3 3 3 3 3 3 3 1 1 2 3 5 6 7 5 3 6 5 5 5 5 4 5 5 6 6 6 6 5 6 6 6 6 7 7 8 8 9 9 9 9 9 9 9 9 9 8 8 9 9 8 9 9 9
7 7 8 6 7 7 7 6 7 7 8 8 9 8 8 8 8 8 7 7 7 6 5 4 4 4 3 3 3 4 4 4 4 4 3 3 3 3 2 2 1 2 1 5 6 7 5 6 5 5 4 4 5 5 5 6 7 7 7 6 6 6 5 6 6 7 7 8 9 9 9 9 9 9 9 9 9 8 9 9 8 7 7 7 8
9 9 7 7 7 7 6 7 7 7 7 8 9 9 8 8 8 8 8 7 7 7 5 4 4 4 4 4 4 4 3 3 4 4 3 4 3 3 3 2 3 2 3 3 5 7 8 6 6 4 3 2 3 5 5 7 7 7 8 7 6 6 6 6 6 6 6 7 9 10 9 9 8 9 9 9 9 8 7 8 7 8 9 9 9
8 10 8 8 8 7 7 7 7 7 8 8 9 9 8 7 7 8 7 8 7 7 7 6 5 5 5 5 5 4 3 3 3 4 4 3 3 2 2 3 2 3 3 4 5 6 6 6 6 5 4 2 3 2 3 3 5 4 4 6 5 5 6 4 6 5 4 5 7 9 9 8 8 8 9 9 9 9 9 7 8 9 9 10 10
5 5 9 8 8 7 7 7 7 7 8 8 9 9 9 9 9 8 8 8 7 7 6 5 5 5 4 5 4 4 3 3 3 3 3 3 2 2 2 3 3 4 4 4 4 4 5 5 6 6 6 5 2 2 5 2 4 4 5 4 5 3 2 5 5 6 5 6 8 9 8 8 7 8 9 9 9 9 8 8 8 9 10 10 11
3 2 8 8 6 8 8 8 8 8 8 9 9 9 10 10 11 11 9 8 6 6 6 6 5 5 4 4 4 4 4 4 4 4 3 3 4 3 3 3 3 4 4 4 4 4 4 4 3 3 5 6 6 1 7 8 4 2 3 4 3 4 6 3 5 7 6 6 7 8 8 9 9 8 9 9 10 9 8 8 9 9 9 11 10
1 5 7 7 7 7 6 7 8 8 9 9 9 10 11 10 9 9 10 9 7 6 6 6 6 5 5 5 5 5 4 5 5 5 4 4 3 4 3 3 3 5 5 4 4 4 4 4 4 3 3 6 4 9 7 7 10 9 12 4 4 6 5 5 9 10 9 8 8 8 9 11 10 9 10 11 10 8 8 9 9 8 9 10 10
6 8 8 8 7 6 6 5 8 9 8 8 8 8 10 10 9 9 9 9 8 8 7 7 7 7 7 6 4 4 5 6 7 6 5 4 4 4 4 3 4 5 4 5 5 4 3 3 3 2 2 5 7 5 6 7 9 11 7 3 3 3 1 7 11 10 8 7 7 8 9 12 11 11 11 10 9 9 9 9 9 8 9 9 10
8 8 7 9 7 6 6 7 10 9 7 7 9 9 8 10 11 10 9 8 7 8 9 9 7 8 7 7 6 6 5 6 6 7 7 6 5 5 4 5 5 5 5 5 5 5 4 2 1 2 2 3 3 5 7 6 4 9 8 7 5 2 9 10 11 10 8 7 8 8 10 12 11 11 11 10 10 10 9 9 9 9 9 9 10
9 9 9 10 10 8 6 7 9 8 8 8 8 8 8 9 10 9 9 9 8 8 8 8 3 4 7 8 6 6 6 8 7 7 6 6 6 6 5 6 6 6 6 6 5 5 4 3 2 2 2 2 1 3 6 4 11 9 7 7 3 9 8 9 9 8 7 7 7 8 10 13 13 12 11 10 10 10 9 9 9 9 10 9 10
10 10 9 8 7 9 8 8 10 10 8 9 8 8 9 8 9 8 9 8 7 7 8 8 8 6 3 4 4 5 6 2 8 5 7 6 7 7 7 7 8 7 7 7 6 5 4 3 3 2 3 2 3 3 4 7 7 7 7 6 7 10 9 8 8 8 7 7 7 8 10 13 13 11 10 9 10 9 9 8 9 9 10 9 9
10 10 9 9 11 11 11 9 12 6 10 8 8 8 9 10 10 8 9 7 5 7 7 8 8 8 9 4 3 1 3 4 5 6 6 5 5 7 6 8 8 8 8 7 8 6 5 5 5 4 2 3 3 3 4 6 6 6 6 9 7 7 9 8 8 8 8 8 8 8 11 12 12 11 10 11 10 10 9 9 8 9 9 9 9
11 11 9 11 11 8 10 9 9 8 7 7 7 8 9 10 9 9 8 6 2 6 8 8 6 7 9 5 4 5 4 4 5 4 6 5 5 6 7 8 9 8 8 7 8 6 5 4 5 4 3 3 3 3 5 7 7 8 9 10 7 10 9 8 8 9 8 9 9 10 11 13 13 12 12 11 10 9 8 8 8 8 8 8 8
10 10 8 9 9 8 8 7 5 6 8 8 7 8 9 9 9 9 8 7 7 8 8 7 9 10 9 9 6 5 4 5 4 4 4 6 7 6 7 8 8 8 8 7 7 6 5 5 5 5 4 4 4 4 5 7 9 10 8 9 10 10 9 7 5 2 5 8 10 11 11 12 13 12 13 11 10 9 8 8 8 8 8 8 8
6 7 9 10 8 9 10 10 7 8 10 7 7 7 10 9 8 8 9 9 10 7 5 7 10 8 10 9 8 8 6 6 5 4 5 6 7 9 9 8 7 7 7 6 6 5 5 5 5 5 4 3 4 6 6 7 8 8 10 10 10 10 9 8 7 5 5 7 9 11 11 12 13 13 11 10 9 9 9 9 9 9 8 8 8
6 8 9 8 7 6 5 7 8 9 6 6 9 10 10 10 9 10 10 10 7 9 10 8 8 7 6 9 8 8 7 7 6 6 6 7 5 8 9 10 10 8 8 7 7 7 7 5 6 6 5 4 4 5 6 6 6 8 9 11 10 9 9 8 8 7 7 6 7 10 12 12 11 11 10 10 9 10 10 10 10 9 9 8 8
5 6 7 7 7 7 6 6 5 8 7 9 10 10 10 11 10 11 11 10 7 9 11 12 8 7 11 9 9 8 8 8 7 7 6 6 6 6 8 10 8 8 8 8 8 8 7 6 6 6 5 6 5 5 5 5 6 13 14 10 10 9 9 8 8 8 7 5 5 8 10 10 10 10 9 9 9 10 10 11 11 10 10 9 9
6 8 11 12 10 10 10 9 8 8 8 6 6 6 8 9 9 10 10 10 10 12 13 10 9 3 7 9 8 8 8 7 5 6 6 6 5 5 7 7 8 7 8 8 9 8 8 7 7 6 6 6 6 5 5 5 9 14 10 10 9 10 9 9 8 8 7 5 4 6 9 9 9 9 9 9 10 10 10 10 10 10 10 10 9
6 8 10 12 10 10 10 10 9 10 10 9 9 10 9 9 12 10 9 11 10 11 9 11 10 9 10 8 8 8 8 7 5 5 5 5 6 6 6 7 7 7 6 8 7 8 7 7 7 7 7 7 6 5 5 6 8 8 8 8 9 9 9 9 8 7 7 5 4 5 7 9 9 9 9 9 9 10 10 9 8 6 5 7 8
8 9 7 9 11 10 10 10 10 11 11 11 10 10 11 11 11 8 10 9 9 12 13 11 10 12 10 8 10 9 9 7 7 6 6 7 6 6 6 6 7 7 6 7 8 8 7 7 6 6 7 7 6 7 6 6 9 11 7 7 9 9 9 9 9 8 8 7 3 3 6 6 8 9 9 8 7 9 10 8 7 6 6 5 5
7 8 8 8 9 10 11 11 11 11 11 9 10 9 9 9 8 7 7 8 5 8 12 12 8 11 7 10 9 9 6 6 7 7 7 7 6 7 7 8 7 7 7 7 8 9 8 7 7 7 7 7 7 7 8 7 9 12 7 7 8 10 10 10 9 9 9 7 6 4 5 5 5 6 7 9 10 9 8 7 6 6 5 5 5
6 7 8 8 8 9 9 10 10 11 12 13 11 10 11 9 7 7 10 7 8 14 12 12 11 12 12 11 8 9 8 8 8 8 8 7 7 6 7 8 8 8 7 7 7 8 9 8 8 8 8 8 7 7 6 7 8 12 9 6 8 9 9 10 11 10 9 8 7 7 6 7 8 9 9 9 8 8 7 6 6 5 5 4 4
6 7 8 9 8 9 9 10 11 11 11 12 13 12 10 9 9 10 12 11 10 11 10 11 10 9 3 7 9 7 7 8 7 8 8 7 7 6 8 8 7 7 8 8 8 8 10 9 8 9 10 9 8 8 7 8 11 12 8 6 7 9 11 11 11 10 9 9 8 8 8 8 8 9 9 9 6 6 7 7 6 5 5 4 3
6 6 7 9 9 9 10 12 10 10 11 11 12 12 10 8 8 10 7 9 9 7 9 8 10 8 11 10 5 8 6 5 7 8 5 5 8 8 8 8 7 8 7 8 7 7 8 10 8 9 10 10 9 8 8 7 16 13 9 7 7 7 15 11 11 10 9 9 9 9 9 9 9 9 8 8 8 8 7 7 6 6 5 6 5
8 7 8 9 9 9 9 10 9 11 11 11 12 10 11 10 8 8 10 8 9 10 8 9 8 8 10 11 11 6 7 8 11 8 6 5 10 8 8 8 8 8 6 5 6 9 7 9 9 8 11 12 10 8 7 7 12 10 7 6 7 15 15 9 10 9 9 9 9 9 9 9 9 9 9 8 7 7 7 6 7 6 7 8 5
9 8 8 9 9 9 9 10 10 10 10 10 11 11 11 10 11 10 10 11 12 9 11 10 9 10 10 11 11 9 9 7 8 9 8 8 12 9 8 8 8 7 6 6 4 3 6 6 8 7 11 10 10 9 9 7 10 11 7 7 10 14 9 8 10 9 9 9 9 9 10 10 9 9 8 8 8 7 7 8 7 7 8 7 6
9 9 8 9 9 9 10 10 11 11 11 11 11 10 11 11 11 12 12 11 10 10 5 10 10 11 11 11 11 11 7 5 5 8 12 13 11 8 8 8 8 8 8 8 8 7 4 3 6 8 9 11 10 10 10 8 9 8 8 7 9 7 8 7 10 12 11 10 10 9 10 10 10 9 9 9 8 8 8 8 8 8 8 8 8
9 10 10 8 9 9 9 10 11 11 13 13 12 11 11 10 12 10 12 11 12 8 10 11 12 10 10 11 12 11 9 10 11 14 11 10 10 10 10 9 9 8 9 8 8 7 7 5 6 8 9 10 9 10 10 10 9 10 10 7 7 8 8 7 8 10 15 12 11 11 10 10 10 9 9 9 9 9 9 9 9 9 9 9 9
10 10 10 9 9 10 10 10 11 11 12 12 11 11 10 12 14 13 13 12 12 12 15 14 13 14 12 12 12 11 9 11 11 12 10 11 10 10 11 9 9 9 9 9 7 8 9 7 7 8 9 10 9 10 11 9 9 10 10 9 8 8 7 7 7 7 17 14 14 12 11 10 9 9 9 9 9 9 9 9 10 10 10 10 10
9 9 10 10 9 10 11 10 11 11 12 11 11 11 13 13 13 14 14 13 11 10 8 10 9 5 10 12 12 10 11 10 11 11 10 10 10 10 11 10 9 9 8 8 9 6 7 8 9 9 9 10 10 9 10 9 9 9 8 8 9 8 8 8 7 6 14 16 15 12 11 10 9 9 9 9 10 10 10 10 10 10 11 11 11
10 9 9 10 10 10 10 11 11 12 12 12 13 13 12 12 13 13 13 13 12 11 11 12 7 14 13 9 10 12 10 13 12 11 11 12 11 11 10 10 9 9 8 8 9 8 7 8 8 8 9 10 10 8 10 9 9 8 8 8 8 8 8 7 7 4 14 16 14 12 12 11 10 10 10 10 11 11 11 11 11 12 12 12 13
9 11 9 9 9 11 11 12 10 11 12 12 13 13 14 13 13 12 11 12 12 12 11 10 13 15 10 16 13 7 11 13 12 12 12 13 12 11 11 10 11 9 9 9 8 9 10 8 8 7 7 10 10 9 9 9 8 9 8 8 7 7 7 7 7 6 7 7 6 7 8 9 11 12 12 12 13 14 13 13 13 14 14 14 14
9 9 9 10 10 10 10 11 13 13 13 13 12 12 13 13 13 13 11 9 12 10 8 9 11 7 8 7 10 11 12 13 13 13 12 13 11 11 11 11 10 10 10 9 9 10 11 9 9 9 9 8 8 8 9 9 9 8 9 8 8 8 7 7 8 7 6 7 9 11 10 11 12 13 14 15 15 16 15 15 15 15 14 15 14
9 8 9 10 10 11 11 10 8 11 11 12 12 12 11 12 12 12 12 14 14 11 9 11 14 12 12 12 12 13 13 13 13 12 13 11 10 10 9 10 10 10 10 9 10 11 11 11 10 10 10 9 8 8 8 9 9 9 9 8 8 8 8 8 8 7 7 7 7 8 8 9 8 11 13 15 17 17 16 15 16 15 16 15 15
7 8 9 10 12 12 12 10 9 5 10 11 10 11 11 11 10 11 14 14 12 10 11 14 12 10 10 9 6 7 2 7 8 6 6 8 3 10 9 7 10 8 9 9 10 12 10 10 10 11 10 9 9 9 8 9 10 9 8 7 7 7 8 7 8 8 7 8 7 7 8 10 10 10 10 10 11 16 15 17 14 16 16 15 14
12 10 8 9 10 12 11 11 7 8 7 11 8 12 12 11 12 12 11 10 11 12 13 11 10 10 10 9 10 9 6 10 8 6 7 8 11 6 3 8 7 8 4 8 10 10 12 13 9 9 11 10 10 10 8 8 8 8 8 8 8 7 6 6 6 7 8 8 7 7 7 8 8 8 9 9 8 11 7 10 10 11 11 17 15
12 12 11 10 10 10 11 10 9 7 8 8 7 11 13 13 13 10 10 10 14 13 11 11 10 10 10 9 9 8 9 7 6 9 10 11 8 1 1 2 5 2 8 8 10 6 7 12 6 6 7 11 11 8 8 7 7 8 8 7 8 8 7 7 7 7 7 8 7 6 7 7 8 7 7 8 6 7 6 7 11 6 7 4 6
13 12 12 12 11 10 10 11 9 8 8 8 10 12 13 13 12 8 8 12 12 10 10 9 8 9 9 9 8 7 8 9 10 8 5 3 3 4 5 6 6 8 6 1 4 7 7 2 4 5 3 2 1 4 5 5 6 6 6 6 7 8 8 8 7 7 7 7 7 7 7 5 5 6 5 3 4 2 10 10 11 9 7 5 2
12 12 13 12 12 12 10 11 11 9 7 5 11 10 12 14 15 12 11 11 10 9 9 11 11 9 9 9 9 7 6 7 8 9 8 6 6 7 7 7 6 5 5 5 6 1 4 3 8 8 9 10 12 9 8 7 4 5 5 5 5 6 7 7 8 5 7 6 5 6 6 5 6 5 6 4 3 7 7 10 8 8 6 5 4
13 13 12 13 12 12 12 10 9 9 3 6 2 6 9 11 15 11 11 11 10 11 10 9 8 9 10 9 9 8 7 8 8 8 8 9 8 7 6 7 5 4 3 2 1 1 3 6 4 9 8 7 7 7 6 7 7 6 4 2 2 4 5 6 4 3 5 3 5 4 6 5 5 5 4 4 3 4 8 8 10 7 7 6 5
12 12 12 12 11 11 11 11 10 5 5 9 5 5 6 6 11 9 7 11 8 7 7 7 8 8 9 9 8 8 9 10 8 8 9 8 8 7 7 6 4 2 2 4 3 3 5 5 6 6 8 7 6 5 6 5 7 6 5 3 3 4 4 3 3 3 3 2 1 4 4 4 4 4 4 1 3 5 9 9 11 9 7 6 6
11 12 11 10 11 11 11 10 9 8 6 12 9 6 5 8 7 6 10 5 6 6 6 7 7 6 4 6 8 9 10 10 8 8 6 8 8 8 8 7 5 6 7 7 5 8 9 7 6 6 7 7 9 6 5 3 6 4 4 3 1 3 5 6 6 6 5 3 2 3 5 4 4 3 1 1 1 2 8 9 9 11 8 7 7
12 12 12 11 11 11 12 10 10 8 8 12 12 7 6 5 5 7 5 4 4 6 6 6 7 6 4 2 6 8 8 7 10 9 8 8 8 9 8 7 6 7 7 7 12 15 16 17 16 15 13 13 13 13 12 12 7 1 6 6 7 8 9 8 7 7 7 5 4 6 4 3 2 0 2 1 2 2 4 3 7 10 11 9 8
13 13 12 11 11 11 13 12 11 8 9 12 14 7 1 6 7 5 5 4 4 6 5 5 5 6 7 12 10 6 7 8 11 10 10 9 8 9 9 9 9 9 8 8 8 10 15 16 16 15 14 13 14 14 14 13 13 8 6 8 5 6 8 7 4 5 6 6 3 5 4 4 1 1 2 2 3 4 3 1 0 8 9 10 9
12 12 12 12 11 11 12 13 17 13 10 11 15 11 9 6 1 2 2 3 5 6 6 5 6 7 7 9 15 10 8 10 11 9 5 5 8 9 9 10 10 10 9 10 11 12 11 11 10 10 10 10 10 10 10 14 14 11 9 6 2 1 1 4 5 4 2 2 2 4 4 2 1 2 1 3 3 2 2 1 2 0 1 4 2
Wind_Direction
195 186 188 197 186 174 179 186 176 175 180 192 188 188 183 186 184 179 170 163 153 152 149 143 144 147 137 126 103 102 115 112 125 118 108 130 123 104 96 105 99 113 136 131 115 117 129 117 103 106 105 108 107 114 117 118 117 112 112 109 108 110 111 104 101 101 98 96 91 87 81 83 82 79 72 71 71 71 70 69 65 62 62 62 63
198 198 194 196 192 185 182 182 187 169 182 191 192 192 186 185 184 180 174 172 160 150 156 158 155 137 146 125 138 128 125 133 139 133 120 102 113 116 96 93 76 48 30 119 130 144 126 121 118 119 113 118 129 119 112 120 122 124 120 116 114 110 110 109 105 104 103 100 99 97 90 85 81 78 76 79 74 69 66 67 68 65 62 64 65
218 208 203 198 194 195 193 184 184 183 183 187 194 199 191 184 191 183 178 177 158 152 175 160 158 153 143 138 140 136 134 126 118 103 124 127 124 151 124 110 103 58 14 349 156 142 132 117 116 109 123 130 124 126 132 130 124 119 116 115 112 110 113 115 111 105 104 105 103 99 95 89 84 81 78 76 73 73 72 66 67 67 64 66 69
226 221 225 212 199 203 199 197 192 187 187 181 193 200 198 190 189 187 182 174 166 167 162 168 162 153 141 127 156 142 135 138 139 128 88 109 134 140 149 133 124 98 82 63 77 95 134 133 130 137 135 141 131 137 139 138 138 135 132 128 127 127 124 119 118 112 108 109 106 102 98 95 91 89 84 82 81 77 75 70 65 68 73 73 67
220 223 224 225 214 209 210 206 202 193 190 184 189 198 197 191 190 190 185 178 180 164 169 162 163 157 144 159 156 140 123 162 141 138 140 155 142 148 151 151 140 126 108 106 101 102 94 122 130 128 133 133 137 148 158 151 156 150 139 136 133 133 127 120 119 118 113 111 105 101 101 98 98 98 92 84 80 78 79 80 72 71 70 72 67
217 221 230 227 222 213 214 210 211 196 186 185 189 197 196 196 195 190 186 185 184 175 177 173 167 162 163 173 160 132 169 172 144 141 162 153 146 161 147 159 159 163 146 131 132 134 134 141 146 132 138 143 150 152 158 167 163 160 154 149 145 137 131 128 126 127 126 121 117 109 100 103 99 97 96 94 89 82 80 86 84 72 67 69 69
217 232 230 224 217 217 214 213 211 203 197 193 197 194 196 200 198 199 187 196 191 188 185 171 175 176 165 178 160 164 184 156 156 164 170 147 186 162 164 148 143 175 155 157 143 139 169 163 148 151 146 150 154 159 165 166 168 165 166 163 154 145 140 138 137 136 134 127 126 121 112 104 105 103 103 98 95 94 94 92 87 77 67 62 64
211 229 231 220 219 221 214 215 214 206 209 196 205 200 194 200 201 200 190 195 191 188 186 179 188 178 174 171 177 203 188 167 173 180 171 181 179 166 158 134 190 132 150 141 153 134 132 135 139 155 154 152 155 157 157 160 164 168 173 171 166 157 154 152 145 138 140 143 134 130 123 117 114 111 106 105 101 98 92 89 81 66 65 66 63
230 225 215 219 225 220 215 210 212 219 211 203 207 205 199 196 195 201 200 193 192 184 184 185 188 188 183 195 191 205 206 179 179 181 175 202 172 167 158 137 144 107 189 139 136 146 141 148 152 141 154 166 181 183 167 164 164 174 180 175 173 176 168 166 166 154 145 142 145 144 136 125 114 114 117 112 107 103 104 87 69 72 76 72 68
225 236 225 227 230 224 218 208 210 211 212 210 210 206 195 195 193 194 197 197 193 188 190 194 191 190 193 203 196 204 206 185 200 200 203 179 165 163 154 145 171 176 159 147 153 147 148 144 139 131 125 109 87 179 191 174 177 151 205 186 183 183 199 182 173 164 167 157 153 148 146 138 129 115 120 119 115 113 106 95 87 83 79 77 73
214 258 253 234 234 231 225 208 209 206 209 209 210 204 193 190 193 184 192 201 197 189 197 190 190 188 192 196 192 214 203 196 203 226 220 163 143 177 162 191 173 185 157 155 163 154 162 165 177 189 161 129 89 103 113 292 232 157 159 140 182 160 186 191 160 163 150 159 156 148 146 143 138 123 121 119 119 122 111 97 95 90 82 79 75
219 315 290 256 252 237 225 210 207 204 204 204 201 201 187 191 192 192 192 198 200 193 190 186 178 180 181 187 196 201 209 199 206 206 219 179 175 199 176 207 191 168 171 171 167 165 172 178 179 202 146 137 145 166 175 187 111 47 330 209 162 179 216 191 163 135 135 135 140 147 154 151 139 133 125 122 124 125 117 98 93 87 88 85 80
231 229 236 237 229 250 255 222 211 211 206 206 202 197 187 186 182 188 192 194 193 190 184 184 179 167 180 186 193 202 202 210 212 205 205 193 174 209 185 206 210 182 181 188 181 185 181 187 189 179 184 147 190 198 207 174 165 184 216 214 194 201 233 196 146 131 128 128 126 136 154 151 145 142 136 131 133 128 113 104 94 96 96 92 86
202 213 229 233 219 219 217 248 243 214 210 202 201 198 194 189 183 190 194 194 190 188 181 178 183 191 186 182 194 190 206 214 216 200 202 192 187 200 209 201 222 195 189 196 189 192 195 202 191 173 203 176 167 188 198 188 184 195 182 152 246 239 182 164 134 124 127 126 123 126 145 151 148 147 141 135 124 119 118 110 101 96 94 89 86
219 205 218 236 228 223 221 206 229 225 204 194 191 190 190 185 188 197 189 191 191 188 187 197 199 189 207 197 194 206 181 223 212 205 197 194 191 203 202 212 212 221 201 204 198 185 199 189 191 198 207 216 216 177 152 117 137 162 170 169 195 231 151 142 127 121 126 126 128 129 143 150 150 149 144 134 128 124 115 110 105 97 92 88 84
241 227 213 221 222 219 227 221 221 223 204 192 190 185 183 187 192 195 194 189 195 187 187 205 266 172 204 206 191 216 192 214 206 192 190 187 192 197 206 216 208 216 218 208 199 200 179 190 159 202 222 248 210 227 124 157 140 152 155 160 184 137 140 134 118 127 131 131 131 136 143 153 155 153 142 129 126 119 116 110 107 102 96 94 92
239 234 224 219 219 228 224 229 221 215 206 198 190 195 187 188 187 184 191 196 184 177 184 200 217 251 281 168 187 207 232 157 171 167 183 181 193 194 200 212 200 208 213 206 201 191 177 171 198 178 209 226 206 210 127 144 139 147 148 166 158 158 143 118 124 128 131 135 138 142 147 155 154 146 128 126 121 120 117 113 109 106 101 100 99
245 235 223 218 224 224 224 224 227 206 214 202 194 188 194 193 190 194 189 204 209 176 187 201 208 220 225 264 327 237 250 166 195 175 182 198 190 200 202 213 205 205 216 207 203 193 177 188 185 182 199 212 191 203 135 86 135 145 140 134 159 146 120 123 124 129 132 131 132 137 143 147 142 133 128 126 126 122 118 115 111 108 109 107 106
248 244 230 226 227 222 223 218 222 215 214 200 187 186 196 200 188 193 190 169 168 194 197 187 192 229 229 230 224 219 250 208 204 179 182 180 194 187 205 208 205 207 215 207 208 190 184 193 183 182 179 193 191 178 150 139 113 105 103 110 122 115 119 132 137 140 135 133 129 134 137 139 136 135 132 129 126 125 121 119 115 112 115 115 115
253 249 237 228 227 223 228 227 203 244 231 209 195 189 193 197 192 200 182 173 185 203 203 193 198 206 208 218 211 243 246 231 258 255 192 197 189 193 197 199 199 210 215 209 210 187 187 192 186 172 191 176 180 183 145 143 148 139 126 118 116 113 111 105 110 119 127 130 130 132 136 138 142 140 134 132 133 129 126 124 121 122 121 123 119
240 229 236 231 222 222 218 210 194 211 214 203 201 190 199 194 189 190 190 186 195 186 200 207 210 220 193 210 212 215 215 212 221 231 236 211 193 186 187 187 204 207 210 213 207 196 192 200 185 179 173 172 180 174 157 153 148 135 125 123 119 120 116 110 101 87 66 119 130 134 136 140 138 135 137 138 139 136 134 130 130 128 124 123 124
219 226 228 229 229 227 229 201 178 207 190 199 209 194 208 200 196 197 194 193 188 191 210 212 214 217 202 195 201 207 209 207 208 216 228 255 229 188 188 181 197 200 198 198 207 199 190 184 195 184 159 173 188 178 162 146 156 148 121 126 128 126 124 119 112 96 82 91 123 137 138 141 139 143 146 151 149 140 140 141 138 136 131 125 123
222 209 211 205 216 216 219 209 198 203 195 200 214 200 206 203 201 201 198 190 193 218 226 221 199 197 214 204 203 207 204 206 203 205 218 212 225 200 188 196 205 181 194 194 202 201 193 178 193 181 165 176 178 174 162 156 73 100 123 134 135 133 129 126 119 105 93 83 127 146 152 152 154 157 158 154 153 151 149 148 143 137 135 129 125
226 218 216 211 215 218 213 203 199 183 193 203 198 212 218 214 210 204 200 189 202 213 216 216 210 241 241 204 207 208 207 215 202 225 204 218 225 208 192 188 205 195 177 186 201 202 200 188 187 175 177 169 178 173 164 160 107 123 138 137 140 139 137 134 127 119 109 104 104 153 163 161 160 161 157 156 157 154 149 145 144 140 137 140 139
235 232 223 211 209 213 213 205 181 182 185 193 202 209 209 213 213 211 205 197 197 212 216 216 204 202 217 214 209 210 212 208 214 204 216 233 210 215 192 188 197 187 160 184 194 199 196 193 189 177 179 172 173 171 182 179 143 155 157 141 146 146 146 144 141 135 133 133 147 167 165 164 166 164 163 161 155 156 146 118 93 95 123 142 144
240 240 234 220 214 210 210 209 192 189 187 189 198 209 211 220 215 201 212 206 203 209 219 215 208 213 219 199 201 208 213 206 201 209 212 215 214 211 186 184 199 192 165 186 192 189 183 198 186 178 185 173 178 173 194 170 124 151 202 154 153 156 155 157 152 151 149 137 123 164 152 158 169 167 166 161 142 111 106 112 118 119 117 112 121
236 243 242 237 228 215 208 204 201 196 190 193 197 201 210 216 220 205 222 225 199 250 223 217 210 220 217 227 202 211 193 218 205 214 215 211 216 202 189 183 188 205 178 190 184 204 183 185 186 184 191 182 183 178 185 203 132 151 198 174 160 159 168 164 162 160 156 147 139 146 153 159 159 130 108 108 115 125 127 128 133 132 124 121 113
251 244 240 237 229 222 208 208 201 198 194 196 197 202 206 209 219 213 219 214 201 213 224 217 217 214 207 211 212 208 206 210 209 209 224 207 212 209 194 198 193 189 190 188 195 198 192 188 183 188 190 187 182 185 170 161 138 160 204 194 162 167 175 173 170 165 163 156 152 149 145 131 131 131 133 135 139 145 148 142 147 149 145 141 133
253 246 243 238 232 221 216 213 212 206 202 201 201 204 200 205 214 216 211 206 206 215 215 223 212 212 280 233 220 220 207 214 219 214 213 226 218 204 204 212 204 199 193 197 199 201 188 197 181 183 195 185 182 184 170 196 137 163 190 197 163 172 168 179 172 167 168 161 156 158 153 148 146 149 151 156 154 160 162 161 163 168 176 180 153
244 240 235 234 235 220 216 212 212 212 210 208 206 207 202 194 200 222 226 211 211 213 226 223 228 208 205 206 165 223 204 197 217 218 236 240 222 207 208 214 217 221 198 211 194 204 187 194 193 178 188 189 181 187 172 197 139 189 188 185 179 164 153 176 171 171 170 166 160 158 160 159 160 162 163 166 171 169 170 176 179 187 201 206 197
249 240 232 230 229 231 226 220 211 214 211 207 209 207 206 204 196 202 211 209 216 215 217 216 214 211 211 215 208 178 218 200 211 197 197 227 234 212 208 217 210 232 232 209 210 188 201 184 202 189 179 187 178 180 177 181 154 190 199 165 191 123 154 163 175 174 177 172 166 166 167 168 170 175 175 177 182 183 184 192 193 202 213 215 212
257 250 242 240 231 223 226 221 213 211 206 212 208 204 202 206 205 203 209 208 210 217 217 211 213 208 205 211 213 204 200 191 227 196 205 209 233 211 208 209 210 214 234 232 215 147 234 182 186 197 175 182 180 176 181 175 145 195 189 188 115 137 170 169 176 181 182 180 177 178 179 173 180 185 187 190 193 195 197 199 202 209 216 224 215
257 258 251 247 247 239 224 222 218 209 203 209 211 207 206 207 210 211 211 211 216 209 195 227 218 205 207 209 205 203 201 201 238 227 204 203 207 214 213 206 210 204 212 220 218 154 161 182 190 190 177 181 185 185 183 173 155 185 212 176 153 183 186 185 174 178 185 184 185 188 188 181 184 191 193 197 200 204 204 204 207 214 220 224 224
258 255 253 247 241 240 230 226 220 211 206 209 209 207 205 203 210 211 215 211 210 196 223 203 215 225 207 206 203 192 200 212 208 217 208 211 203 207 208 209 204 205 205 213 222 171 160 174 192 190 175 186 192 190 187 182 172 181 192 185 173 189 190 198 179 174 182 186 187 192 193 190 189 197 199 201 208 209 209 207 209 217 222 223 226
264 255 254 251 243 238 233 228 222 215 208 209 208 207 207 209 211 211 212 206 201 194 215 214 199 214 202 207 201 193 193 212 218 220 209 210 211 208 208 209 211 205 203 216 213 210 169 175 192 193 180 188 206 183 190 181 182 184 190 188 188 188 197 193 205 169 174 181 186 189 196 193 194 199 205 211 213 216 217 215 215 220 224 228 229
267 264 261 260 251 238 235 228 223 220 214 208 204 204 208 211 214 214 213 206 201 198 210 229 208 204 216 201 201 198 201 206 216 211 217 211 213 214 212 208 209 204 208 202 223 240 200 185 191 206 185 182 201 187 185 178 181 188 195 187 192 191 192 194 203 196 167 177 182 189 193 195 197 201 209 215 218 221 222 221 222 222 225 228 229
277 267 260 258 257 256 238 229 222 220 216 211 208 204 206 212 215 216 213 206 200 193 204 219 194 202 203 199 218 210 193 205 204 209 210 210 211 213 213 209 204 206 201 203 207 221 216 196 189 207 186 182 190 188 180 180 178 192 197 196 193 196 191 200 198 149 139 170 176 188 193 198 200 205 213 215 221 225 225 226 225 227 228 229 231
282 272 266 259 259 252 244 235 222 230 220 214 212 205 206 209 213 216 212 207 205 203 207 211 215 221 194 194 202 223 202 202 204 204 210 208 209 213 211 210 207 202 200 199 209 210 218 201 188 190 181 188 183 186 184 190 184 189 191 197 198 199 194 195 201 185 162 165 187 186 196 205 205 212 212 216 222 224 226 226 227 229 230 231 233
290 288 276 269 257 256 256 259 234 224 220 211 210 205 207 208 208 211 210 202 203 205 215 219 235 197 224 173 208 216 213 204 203 202 204 206 209 213 212 209 218 203 194 205 204 205 212 208 197 187 184 186 179 179 190 191 200 197 192 193 199 195 198 197 199 197 198 180 181 179 195 208 206 206 207 218 221 225 226 226 230 232 235 235 236
290 284 279 270 265 257 253 246 275 255 230 219 211 206 206 206 206 210 206 207 208 198 206 220 221 204 204 194 202 219 214 204 207 206 202 207 206 213 205 214 213 204 200 202 208 209 208 208 208 185 191 180 179 193 185 189 202 208 206 201 200 194 193 197 207 203 193 192 198 191 193 199 200 210 205 211 221 227 226 229 231 235 236 239 238
293 283 283 277 269 262 256 243 233 263 269 243 216 205 207 207 205 206 211 204 193 188 206 213 209 209 212 217 225 230 89 21 6 37 359 356 270 214 217 211 211 204 207 209 201 214 211 205 205 199 190 187 185 185 181 191 203 207 200 207 212 198 193 190 201 209 201 194 209 214 195 192 210 213 215 219 218 214 225 224 231 226 234 242 244
326 307 286 287 281 272 267 264 239 235 242 247 226 209 205 209 206 207 202 199 202 200 207 206 206 205 208 205 214 117 122 198 208 200 202 197 221 291 308 253 219 225 213 218 213 207 211 213 194 203 201 189 190 187 192 195 207 215 203 198 207 198 197 196 195 190 200 209 207 210 216 188 203 211 212 217 212 186 219 203 217 222 212 220 232
334 330 316 294 280 270 266 259 256 232 238 253 250 204 204 209 210 207 209 209 207 206 202 202 197 201 200 199 204 151 167 143 183 168 187 188 208 199 149 306 27 329 226 229 238 233 227 223 147 220 199 199 198 185 192 193 196 208 204 196 202 197 196 201 200 174 186 200 206 225 220 193 200 222 222 220 198 177 200 63 67 80 56 132 211
342 338 337 326 304 278 259 255 254 250 235 231 208 205 212 215 225 215 219 213 209 198 197 187 207 196 193 189 202 189 198 201 192 168 154 132 162 146 91 61 62 76 64 62 267 240 241 291 102 130 87 21 256 189 199 194 188 196 208 204 204 199 197 205 213 191 165 189 201 211 223 182 198 239 248 255 246 98 71 72 71 62 67 46 72
344 345 343 339 334 319 275 265 264 250 240 161 202 203 211 217 224 224 209 224 199 193 196 193 202 198 195 191 192 189 176 146 189 183 175 144 122 116 111 105 80 50 55 85 103 164 277 228 208 180 185 197 224 219 201 198 174 183 195 208 208 206 204 207 218 159 139 183 205 216 227 205 194 219 242 207 170 113 93 75 78 86 67 73 50
350 346 345 345 338 337 335 310 275 256 239 25 335 214 229 235 228 212 229 224 195 195 189 188 194 198 197 190 183 186 169 175 190 179 172 165 158 160 170 190 172 120 126 124 251 236 291 275 168 160 190 214 223 209 146 138 159 161 153 196 228 226 210 219 226 112 115 164 233 236 232 209 187 227 220 168 142 111 91 99 96 85 84 73 78
353 348 350 346 346 342 342 339 334 341 46 7 327 256 218 226 270 273 227 230 197 175 176 185 188 186 192 186 189 182 173 175 178 172 169 166 166 178 181 186 168 146 66 13 343 289 234 219 241 185 179 204 214 158 141 133 141 143 151 197 281 273 229 122 119 138 135 128 239 257 232 238 167 230 244 188 168 128 118 121 108 103 90 80 68
358 355 355 356 352 349 346 350 344 343 348 5 327 284 239 216 203 232 233 213 153 125 126 153 168 153 186 195 205 199 194 164 126 152 165 163 161 169 171 164 130 91 61 35 14 43 41 61 58 69 64 53 42 56 59 133 172 171 174 155 194 222 201 197 193 166 179 109 5 276 264 241 115 269 303 182 189 220 139 116 121 111 108 99 84
4 2 358 2 0 360 358 360 354 346 344 351 329 298 247 196 173 215 237 209 146 120 115 130 145 148 124 237 207 173 165 136 134 144 143 170 169 155 150 140 118 103 91 77 62 72 78 77 79 79 83 75 67 61 59 41 26 240 183 175 192 201 208 207 192 178 170 110 38 351 317 271 194 299 280 317 342 319 286 148 120 135 143 134 119
9 8 6 4 6 8 8 6 3 357 355 350 338 342 215 192 197 189 198 206 145 113 108 97 110 86 58 35 352 173 143 130 138 140 157 175 164 155 146 134 125 115 113 111 101 88 93 95 93 94 93 93 85 73 56 45 33 356 201 180 162 203 214 212 231 190 144 98 57 347 284 261 330 274 282 289 259 232 205 116 342 146 159 154 142
16 14 13 14 13 15 13 13 13 12 3 358 352 351 27 42 51 83 80 224 166 124 112 85 73 83 59 37 20 23 96 119 129 138 164 221 156 155 149 140 130 124 125 131 123 122 122 118 117 111 99 94 87 78 65 54 38 35 41 56 60 273 158 71 58 52 114 132 62 314 278 175 192 156 303 267 258 144 151 236 223 163 35 13 79